| time (UTC) | temp F | wind direction | speed MPH | gust MPH | rain 1hr in | rain 24hr in | rain mn in | humidity % | barometer mb |
| 20260503033059 | 50 | 312 | 0.0 | 0.0 | 0.00 | 0.00 | 0.00 | 59 | 1018.5 |
| 20260503032528 | 51 | 312 | 0.0 | 0.0 | 0.00 | 0.00 | 0.00 | 59 | 1018.5 |
| 20260503032005 | 51 | 312 | 0.0 | 0.0 | 0.00 | 0.00 | 0.00 | 59 | 1018.5 |
| 20260503031546 | 51 | 312 | 0.0 | 0.0 | 0.00 | 0.00 | 0.00 | 59 | 1018.5 |
| 20260503031023 | 51 | 312 | 0.0 | 0.0 | 0.00 | 0.00 | 0.00 | 57 | 1018.5 |
| 20260503030605 | 51 | 312 | 0.0 | 0.0 | 0.00 | 0.00 | 0.00 | 57 | 1018.5 |
| 20260503030040 | 51 | 312 | 0.0 | 0.0 | 0.00 | 0.00 | 0.00 | 55 | 1018.5 |
| 20260503025516 | 52 | 312 | 0.0 | 0.0 | 0.00 | 0.00 | 0.00 | 55 | 1018.5 |
| 20260503025059 | 52 | 312 | 0.0 | 0.0 | 0.00 | 0.00 | 0.00 | 54 | 1018.6 |
| 20260503024548 | 52 | 312 | 0.0 | 0.0 | 0.00 | 0.00 | 0.00 | 54 | 1018.6 |
| 20260503024019 | 52 | 312 | 0.0 | 0.0 | 0.00 | 0.00 | 0.00 | 53 | 1018.6 |
| 20260503023602 | 52 | 312 | 0.0 | 0.0 | 0.00 | 0.00 | 0.00 | 53 | 1018.6 |
| 20260503023034 | 53 | 312 | 0.0 | 0.0 | 0.00 | 0.00 | 0.00 | 52 | 1018.5 |
| 20260503022510 | 53 | 312 | 0.0 | 0.0 | 0.00 | 0.00 | 0.00 | 52 | 1018.5 |
| 20260503022055 | 53 | 312 | 0.0 | 0.0 | 0.00 | 0.00 | 0.00 | 52 | 1018.5 |
| 20260503021532 | 53 | 312 | 0.0 | 0.0 | 0.00 | 0.00 | 0.00 | 51 | 1018.5 |
| 20260503021004 | 54 | 312 | 0.0 | 0.0 | 0.00 | 0.00 | 0.00 | 51 | 1018.5 |
| 20260503020544 | 54 | 312 | 0.0 | 0.0 | 0.00 | 0.00 | 0.00 | 49 | 1018.4 |
| 20260503020020 | 54 | 312 | 0.0 | 0.0 | 0.00 | 0.00 | 0.00 | 49 | 1018.3 |
| 20260503015601 | 54 | 312 | 0.0 | 0.0 | 0.00 | 0.00 | 0.00 | 49 | 1018.3 |
| 20260503015041 | 55 | 312 | 0.0 | 0.0 | 0.00 | 0.00 | 0.00 | 47 | 1018.2 |
| 20260503014514 | 55 | 312 | 0.0 | 0.0 | 0.00 | 0.00 | 0.00 | 47 | 1018.2 |
| 20260503014057 | 55 | 312 | 0.0 | 0.0 | 0.00 | 0.00 | 0.00 | 48 | 1018.2 |
| 20260503013531 | 56 | 312 | 0.0 | 0.0 | 0.00 | 0.00 | 0.00 | 44 | 1018.2 |
| 20260503013015 | 56 | 312 | 0.0 | 0.0 | 0.00 | 0.00 | 0.00 | 44 | 1018.2 |
| 20260503012548 | 57 | 312 | 0.0 | 0.0 | 0.00 | 0.00 | 0.00 | 43 | 1018.2 |
| 20260503012026 | 57 | 312 | 0.0 | 0.0 | 0.00 | 0.00 | 0.00 | 43 | 1018.1 |
| 20260503011633 | 57 | 312 | 0.0 | 0.0 | 0.00 | 0.00 | 0.00 | 43 | 1018.1 |
| 20260503011040 | 58 | 312 | 0.0 | 0.0 | 0.00 | 0.00 | 0.00 | 42 | 1018.1 |
| 20260503010514 | 58 | 312 | 0.0 | 0.0 | 0.00 | 0.00 | 0.00 | 41 | 1018.2 |
| 20260503010056 | 58 | 312 | 0.0 | 0.0 | 0.00 | 0.00 | 0.00 | 40 | 1018.1 |
| 20260503005530 | 59 | 312 | 0.0 | 0.0 | 0.00 | 0.00 | 0.00 | 40 | 1018.1 |
| 20260503005007 | 59 | 312 | 0.0 | 0.0 | 0.00 | 0.00 | 0.00 | 40 | 1018.2 |
| 20260503004547 | 59 | 312 | 0.0 | 0.0 | 0.00 | 0.00 | 0.00 | 40 | 1018.2 |
| 20260503004023 | 59 | 312 | 0.0 | 0.0 | 0.00 | 0.00 | 0.00 | 40 | 1018.2 |
| 20260503003604 | 60 | 312 | 0.0 | 0.0 | 0.00 | 0.00 | 0.00 | 39 | 1018.3 |
| 20260503003041 | 60 | 312 | 0.0 | 0.0 | 0.00 | 0.00 | 0.00 | 39 | 1018.2 |
| 20260503002514 | 60 | 312 | 0.0 | 0.0 | 0.00 | 0.00 | 0.00 | 37 | 1018.2 |
| 20260503002055 | 60 | 312 | 0.0 | 0.0 | 0.00 | 0.00 | 0.00 | 38 | 1018.3 |
| 20260503001532 | 61 | 312 | 0.0 | 0.0 | 0.00 | 0.00 | 0.00 | 36 | 1018.1 |
| 20260503001008 | 61 | 312 | 0.0 | 0.0 | 0.00 | 0.00 | 0.00 | 36 | 1018.2 |
| 20260503000549 | 61 | 312 | 0.0 | 0.0 | 0.00 | 0.00 | 0.00 | 36 | 1018.2 |
| 20260503000024 | 61 | 312 | 0.0 | 0.0 | 0.00 | 0.00 | 0.00 | 35 | 1018.2 |
| 20260502235501 | 61 | 312 | 0.0 | 1.0 | 0.00 | 0.00 | 0.00 | 35 | 1018.2 |
| 20260502235041 | 61 | 312 | 0.0 | 1.0 | 0.00 | 0.00 | 0.00 | 34 | 1018.3 |
| 20260502234520 | 61 | 46 | 0.0 | 1.0 | 0.00 | 0.00 | 0.00 | 34 | 1018.3 |
| 20260502234059 | 61 | 321 | 0.0 | 1.0 | 0.00 | 0.00 | 0.00 | 33 | 1018.3 |
| 20260502233533 | 61 | 321 | 0.0 | 0.0 | 0.00 | 0.00 | 0.00 | 35 | 1018.3 |
| 20260502233010 | 62 | 321 | 0.0 | 2.0 | 0.00 | 0.00 | 0.00 | 35 | 1018.4 |
| 20260502232552 | 62 | 321 | 0.0 | 2.0 | 0.00 | 0.00 | 0.00 | 34 | 1018.4 |
| 20260502232030 | 61 | 186 | 0.0 | 0.0 | 0.00 | 0.00 | 0.00 | 34 | 1018.4 |
| 20260502231607 | 61 | 186 | 0.0 | 0.0 | 0.00 | 0.00 | 0.00 | 35 | 1018.4 |
| 20260502231055 | 62 | 186 | 0.0 | 0.0 | 0.00 | 0.00 | 0.00 | 34 | 1018.5 |
| 20260502230528 | 62 | 205 | 0.0 | 1.0 | 0.00 | 0.00 | 0.00 | 34 | 1018.5 |
| 20260502230007 | 62 | 205 | 0.0 | 1.0 | 0.00 | 0.00 | 0.00 | 33 | 1018.6 |
| 20260502225542 | 62 | 205 | 0.0 | 1.0 | 0.00 | 0.00 | 0.00 | 33 | 1018.6 |
| 20260502225019 | 62 | 261 | 0.0 | 2.0 | 0.00 | 0.00 | 0.00 | 32 | 1018.6 |
| 20260502224600 | 62 | 4 | 0.0 | 2.0 | 0.00 | 0.00 | 0.00 | 32 | 1018.6 |
| 20260502224036 | 62 | 150 | 0.0 | 2.0 | 0.00 | 0.00 | 0.00 | 34 | 1018.7 |
| 20260502223512 | 62 | 27 | 0.0 | 3.0 | 0.00 | 0.00 | 0.00 | 31 | 1018.7 |
| 20260502223059 | 62 | 333 | 0.0 | 3.0 | 0.00 | 0.00 | 0.00 | 33 | 1018.7 |
| 20260502222528 | 62 | 3 | 0.0 | 5.0 | 0.00 | 0.00 | 0.00 | 32 | 1018.7 |
| 20260502222003 | 62 | 3 | 1.0 | 5.0 | 0.00 | 0.00 | 0.00 | 31 | 1018.7 |
| 20260502221543 | 62 | 25 | 0.0 | 3.0 | 0.00 | 0.00 | 0.00 | 33 | 1018.7 |
| 20260502221020 | 62 | 323 | 0.0 | 3.0 | 0.00 | 0.00 | 0.00 | 32 | 1018.7 |
| 20260502220601 | 62 | 326 | 0.0 | 3.0 | 0.00 | 0.00 | 0.00 | 34 | 1018.7 |
| 20260502220037 | 62 | 29 | 0.0 | 3.0 | 0.00 | 0.00 | 0.00 | 32 | 1018.8 |
| 20260502215517 | 62 | 264 | 0.0 | 2.0 | 0.00 | 0.00 | 0.00 | 35 | 1018.9 |
| 20260502215054 | 62 | 357 | 0.0 | 6.0 | 0.00 | 0.00 | 0.00 | 33 | 1019.0 |
| 20260502214531 | 62 | 357 | 3.0 | 6.0 | 0.00 | 0.00 | 0.00 | 31 | 1019.0 |
| 20260502214007 | 62 | 323 | 0.0 | 2.0 | 0.00 | 0.00 | 0.00 | 33 | 1019.0 |
| 20260502213548 | 62 | 319 | 0.0 | 2.0 | 0.00 | 0.00 | 0.00 | 33 | 1019.1 |
| 20260502213036 | 62 | 256 | 0.0 | 2.0 | 0.00 | 0.00 | 0.00 | 32 | 1019.0 |
| 20260502212605 | 62 | 257 | 0.0 | 2.0 | 0.00 | 0.00 | 0.00 | 35 | 1019.1 |
| 20260502212041 | 61 | 309 | 0.0 | 4.0 | 0.00 | 0.00 | 0.00 | 35 | 1019.2 |
| 20260502211521 | 62 | 354 | 2.0 | 4.0 | 0.00 | 0.00 | 0.00 | 33 | 1019.1 |
| 20260502211059 | 62 | 14 | 0.0 | 4.0 | 0.00 | 0.00 | 0.00 | 35 | 1019.2 |
| 20260502210535 | 62 | 359 | 0.0 | 4.0 | 0.00 | 0.00 | 0.00 | 35 | 1019.3 |
| 20260502210013 | 62 | 320 | 0.0 | 4.0 | 0.00 | 0.00 | 0.00 | 36 | 1019.5 |
| 20260502205552 | 62 | 338 | 0.0 | 3.0 | 0.00 | 0.00 | 0.00 | 35 | 1019.6 |
| 20260502205027 | 61 | 339 | 0.0 | 6.0 | 0.00 | 0.00 | 0.00 | 36 | 1019.5 |
| 20260502204504 | 61 | 355 | 1.0 | 6.0 | 0.00 | 0.00 | 0.00 | 35 | 1019.5 |
| 20260502204044 | 61 | 15 | 0.0 | 3.0 | 0.00 | 0.00 | 0.00 | 34 | 1019.6 |
| 20260502203521 | 61 | 316 | 0.0 | 2.0 | 0.00 | 0.00 | 0.00 | 36 | 1019.7 |
| 20260502203120 | 61 | 316 | 0.0 | 2.0 | 0.00 | 0.00 | 0.00 | 33 | 1019.7 |
| 20260502202538 | 61 | 159 | 0.0 | 1.0 | 0.00 | 0.00 | 0.00 | 36 | 1019.7 |
| 20260502202014 | 61 | 149 | 0.0 | 2.0 | 0.00 | 0.00 | 0.00 | 36 | 1019.7 |
| 20260502201609 | 61 | 149 | 0.0 | 2.0 | 0.00 | 0.00 | 0.00 | 35 | 1019.7 |
| 20260502201033 | 61 | 314 | 0.0 | 3.0 | 0.00 | 0.00 | 0.00 | 35 | 1019.9 |
| 20260502200507 | 61 | 323 | 0.0 | 3.0 | 0.00 | 0.00 | 0.00 | 33 | 1019.9 |
| 20260502200051 | 61 | 259 | 0.0 | 3.0 | 0.00 | 0.00 | 0.00 | 38 | 1020.0 |
| 20260502195522 | 61 | 330 | 0.0 | 3.0 | 0.00 | 0.00 | 0.00 | 35 | 1020.0 |
| 20260502195103 | 61 | 307 | 0.0 | 2.0 | 0.00 | 0.00 | 0.00 | 37 | 1020.1 |
| 20260502194540 | 60 | 167 | 0.0 | 3.0 | 0.00 | 0.00 | 0.00 | 36 | 1020.0 |
| 20260502194016 | 60 | 20 | 1.0 | 3.0 | 0.00 | 0.00 | 0.00 | 34 | 1020.1 |
| 20260502193558 | 60 | 332 | 0.0 | 2.0 | 0.00 | 0.00 | 0.00 | 37 | 1020.0 |
| 20260502193039 | 60 | 5 | 0.0 | 3.0 | 0.00 | 0.00 | 0.00 | 35 | 1020.1 |
| 20260502192511 | 60 | 314 | 0.0 | 3.0 | 0.00 | 0.00 | 0.00 | 36 | 1020.3 |
| 20260502192049 | 60 | 323 | 0.0 | 3.0 | 0.00 | 0.00 | 0.00 | 35 | 1020.3 |
| 20260502191528 | 60 | 308 | 0.0 | 3.0 | 0.00 | 0.00 | 0.00 | 36 | 1020.3 |
| 20260502191002 | 60 | 308 | 1.0 | 4.0 | 0.00 | 0.00 | 0.00 | 34 | 1020.4 |
| 20260502190542 | 60 | 302 | 0.0 | 4.0 | 0.00 | 0.00 | 0.00 | 34 | 1020.4 |
| 20260502190019 | 60 | 257 | 0.0 | 2.0 | 0.00 | 0.00 | 0.00 | 36 | 1020.5 |
| 20260502185559 | 60 | 8 | 0.0 | 2.0 | 0.00 | 0.00 | 0.00 | 34 | 1020.6 |
| 20260502185035 | 60 | 339 | 0.0 | 2.0 | 0.00 | 0.00 | 0.00 | 36 | 1020.7 |
| 20260502184511 | 59 | 41 | 0.0 | 2.0 | 0.00 | 0.00 | 0.00 | 35 | 1020.7 |
| 20260502184053 | 59 | 315 | 0.0 | 3.0 | 0.00 | 0.00 | 0.00 | 33 | 1020.8 |
| 20260502183528 | 59 | 314 | 0.0 | 6.0 | 0.00 | 0.00 | 0.00 | 36 | 1020.8 |
| 20260502183006 | 59 | 30 | 0.0 | 6.0 | 0.00 | 0.00 | 0.00 | 33 | 1020.8 |
| 20260502182546 | 59 | 344 | 1.0 | 4.0 | 0.00 | 0.00 | 0.00 | 35 | 1020.8 |
| 20260502182021 | 59 | 321 | 0.0 | 5.0 | 0.00 | 0.00 | 0.00 | 36 | 1020.9 |
| 20260502181602 | 59 | 347 | 2.0 | 6.0 | 0.00 | 0.00 | 0.00 | 38 | 1021.0 |
| 20260502181036 | 59 | 27 | 3.0 | 9.0 | 0.00 | 0.00 | 0.00 | 37 | 1021.1 |
| 20260502180512 | 59 | 27 | 4.0 | 9.0 | 0.00 | 0.00 | 0.00 | 37 | 1021.2 |
| 20260502164054 | 57 | 283 | 0.0 | 6.0 | 0.00 | 0.00 | 0.00 | 44 | 1021.5 |
| 20260502163529 | 57 | 13 | 0.0 | 6.0 | 0.00 | 0.00 | 0.00 | 45 | 1021.5 |
| 20260502163004 | 57 | 4 | 1.0 | 4.0 | 0.00 | 0.00 | 0.00 | 48 | 1021.5 |
| 20260502162546 | 57 | 349 | 0.0 | 4.0 | 0.00 | 0.00 | 0.00 | 47 | 1021.5 |
| 20260502162020 | 56 | 349 | 0.0 | 4.0 | 0.00 | 0.00 | 0.00 | 46 | 1021.5 |
| 20260502161603 | 56 | 4 | 1.0 | 4.0 | 0.00 | 0.00 | 0.00 | 46 | 1021.6 |
| 20260502161036 | 56 | 330 | 0.0 | 5.0 | 0.00 | 0.00 | 0.00 | 48 | 1021.4 |
| 20260502160513 | 56 | 349 | 1.0 | 5.0 | 0.00 | 0.00 | 0.00 | 48 | 1021.5 |
| 20260502152054 | 55 | 303 | 0.0 | 4.0 | 0.00 | 0.00 | 0.00 | 54 | 1021.6 |
| 20260502151529 | 54 | 354 | 0.0 | 3.0 | 0.00 | 0.00 | 0.00 | 55 | 1021.6 |
| 20260502151005 | 54 | 337 | 0.0 | 5.0 | 0.00 | 0.00 | 0.00 | 56 | 1021.6 |
| 20260502150546 | 54 | 38 | 2.0 | 5.0 | 0.00 | 0.00 | 0.00 | 55 | 1021.6 |
| 20260502140103 | 49 | 350 | 0.0 | 6.0 | 0.00 | 0.00 | 0.00 | 69 | 1021.5 |
| 20260502130555 | 45 | 22 | 0.0 | 4.0 | 0.00 | 0.00 | 0.00 | 75 | 1021.1 |
| 20260502123540 | 43 | 200 | 0.0 | 0.0 | 0.00 | 0.00 | 0.00 | 77 | 1020.9 |
| 20260502123017 | 42 | 200 | 0.0 | 0.0 | 0.00 | 0.00 | 0.00 | 77 | 1020.8 |
| 20260502122559 | 42 | 200 | 0.0 | 0.0 | 0.00 | 0.00 | 0.00 | 78 | 1020.8 |
| 20260502122034 | 42 | 200 | 0.0 | 0.0 | 0.00 | 0.00 | 0.00 | 78 | 1020.7 |
| 20260502121513 | 41 | 201 | 0.0 | 0.0 | 0.00 | 0.00 | 0.00 | 79 | 1020.7 |
| 20260502121051 | 41 | 200 | 0.0 | 0.0 | 0.00 | 0.00 | 0.00 | 79 | 1020.6 |
| 20260502120528 | 41 | 200 | 0.0 | 0.0 | 0.00 | 0.00 | 0.00 | 79 | 1020.5 |
| 20260502115547 | 41 | 201 | 0.0 | 0.0 | 0.00 | 0.00 | 0.00 | 79 | 1020.3 |
| 20260502115021 | 41 | 200 | 0.0 | 0.0 | 0.00 | 0.00 | 0.00 | 78 | 1020.3 |
| 20260502114603 | 41 | 200 | 0.0 | 0.0 | 0.00 | 0.00 | 0.00 | 78 | 1020.2 |
| 20260502114038 | 41 | 200 | 0.0 | 0.0 | 0.00 | 0.00 | 0.00 | 79 | 1020.1 |
| 20260502113514 | 41 | 201 | 0.0 | 0.0 | 0.00 | 0.00 | 0.00 | 78 | 1020.1 |
| 20260502113106 | 41 | 200 | 0.0 | 0.0 | 0.00 | 0.00 | 0.00 | 78 | 1020.1 |
| 20260502112529 | 41 | 200 | 0.0 | 0.0 | 0.00 | 0.00 | 0.00 | 78 | 1020.0 |
| 20260502112006 | 41 | 200 | 0.0 | 0.0 | 0.00 | 0.00 | 0.00 | 78 | 1019.9 |
| 20260502111547 | 41 | 200 | 0.0 | 0.0 | 0.00 | 0.00 | 0.00 | 77 | 1020.0 |
| 20260502111022 | 41 | 200 | 0.0 | 0.0 | 0.00 | 0.00 | 0.00 | 77 | 1019.9 |
| 20260502110604 | 41 | 200 | 0.0 | 0.0 | 0.00 | 0.00 | 0.00 | 77 | 1019.9 |
| 20260502110043 | 41 | 200 | 0.0 | 0.0 | 0.00 | 0.00 | 0.00 | 77 | 1019.9 |
| 20260502105516 | 41 | 200 | 0.0 | 0.0 | 0.00 | 0.00 | 0.00 | 77 | 1019.9 |
| 20260502105058 | 41 | 200 | 0.0 | 0.0 | 0.00 | 0.00 | 0.00 | 77 | 1019.8 |
| 20260502104536 | 41 | 200 | 0.0 | 0.0 | 0.00 | 0.00 | 0.00 | 77 | 1019.8 |
| 20260502104009 | 41 | 200 | 0.0 | 0.0 | 0.00 | 0.00 | 0.00 | 77 | 1019.7 |
| 20260502103549 | 41 | 200 | 0.0 | 0.0 | 0.00 | 0.00 | 0.00 | 77 | 1019.7 |
| 20260502103025 | 42 | 200 | 0.0 | 0.0 | 0.00 | 0.00 | 0.00 | 76 | 1019.7 |
| 20260502102501 | 42 | 200 | 0.0 | 0.0 | 0.00 | 0.00 | 0.00 | 76 | 1019.6 |
| 20260502102042 | 42 | 200 | 0.0 | 0.0 | 0.00 | 0.00 | 0.00 | 76 | 1019.6 |
| 20260502101518 | 42 | 200 | 0.0 | 0.0 | 0.00 | 0.00 | 0.00 | 76 | 1019.5 |
| 20260502101058 | 42 | 200 | 0.0 | 0.0 | 0.00 | 0.00 | 0.00 | 76 | 1019.5 |
| 20260502100533 | 42 | 200 | 0.0 | 0.0 | 0.00 | 0.00 | 0.00 | 75 | 1019.4 |
| 20260502091028 | 44 | 200 | 0.0 | 0.0 | 0.00 | 0.00 | 0.00 | 71 | 1019.2 |
| 20260502090502 | 44 | 200 | 0.0 | 0.0 | 0.00 | 0.00 | 0.00 | 70 | 1019.2 |
| 20260502071030 | 47 | 201 | 0.0 | 0.0 | 0.00 | 0.00 | 0.00 | 60 | 1018.8 |
| 20260502070503 | 47 | 200 | 0.0 | 0.0 | 0.00 | 0.00 | 0.00 | 60 | 1018.9 |
| 20260502065522 | 48 | 200 | 0.0 | 0.0 | 0.00 | 0.00 | 0.00 | 59 | 1018.9 |
| 20260502065103 | 48 | 200 | 0.0 | 0.0 | 0.00 | 0.00 | 0.00 | 58 | 1018.9 |
| 20260502064545 | 48 | 200 | 0.0 | 0.0 | 0.00 | 0.00 | 0.00 | 58 | 1018.9 |
| 20260502064014 | 48 | 200 | 0.0 | 0.0 | 0.00 | 0.00 | 0.00 | 58 | 1018.9 |
| 20260502063555 | 48 | 200 | 0.0 | 0.0 | 0.00 | 0.00 | 0.00 | 57 | 1018.9 |
| 20260502063034 | 48 | 200 | 0.0 | 0.0 | 0.00 | 0.00 | 0.00 | 57 | 1018.9 |
| 20260502062508 | 49 | 200 | 0.0 | 0.0 | 0.00 | 0.00 | 0.00 | 57 | 1018.9 |
| 20260502062048 | 49 | 200 | 0.0 | 0.0 | 0.00 | 0.00 | 0.00 | 57 | 1018.9 |
| 20260502061524 | 49 | 200 | 0.0 | 0.0 | 0.00 | 0.00 | 0.00 | 57 | 1018.9 |
| 20260502061107 | 49 | 200 | 0.0 | 0.0 | 0.00 | 0.00 | 0.00 | 56 | 1018.9 |
| 20260502060538 | 49 | 200 | 0.0 | 0.0 | 0.00 | 0.00 | 0.00 | 57 | 1018.9 |
| 20260502060027 | 49 | 200 | 0.0 | 0.0 | 0.00 | 0.00 | 0.00 | 56 | 1018.9 |
| 20260502055556 | 49 | 200 | 0.0 | 0.0 | 0.00 | 0.00 | 0.00 | 56 | 1019.0 |
| 20260502055034 | 49 | 200 | 0.0 | 0.0 | 0.00 | 0.00 | 0.00 | 55 | 1019.0 |
| 20260502054509 | 50 | 200 | 0.0 | 0.0 | 0.00 | 0.00 | 0.00 | 55 | 1018.9 |
| 20260502054051 | 50 | 200 | 0.0 | 0.0 | 0.00 | 0.00 | 0.00 | 54 | 1018.9 |
| 20260502053525 | 50 | 200 | 0.0 | 0.0 | 0.00 | 0.00 | 0.00 | 55 | 1018.9 |
| 20260502053002 | 50 | 201 | 0.0 | 0.0 | 0.00 | 0.00 | 0.00 | 55 | 1018.9 |
| 20260502052543 | 50 | 200 | 0.0 | 0.0 | 0.00 | 0.00 | 0.00 | 56 | 1018.8 |
| 20260502052021 | 50 | 200 | 0.0 | 1.0 | 0.00 | 0.00 | 0.00 | 56 | 1018.9 |
| 20260502051603 | 50 | 200 | 0.0 | 1.0 | 0.00 | 0.00 | 0.00 | 55 | 1018.9 |
| 20260502051037 | 50 | 22 | 0.0 | 1.0 | 0.00 | 0.00 | 0.00 | 54 | 1018.8 |
| 20260502050510 | 51 | 22 | 0.0 | 1.0 | 0.00 | 0.00 | 0.00 | 55 | 1018.7 |
| 20260502050051 | 51 | 22 | 0.0 | 1.0 | 0.00 | 0.00 | 0.00 | 56 | 1018.7 |
| 20260502045528 | 51 | 8 | 0.0 | 1.0 | 0.00 | 0.00 | 0.00 | 56 | 1018.7 |
| 20260502045007 | 50 | 8 | 0.0 | 1.0 | 0.00 | 0.00 | 0.00 | 57 | 1018.8 |
| 20260502044546 | 50 | 335 | 0.0 | 1.0 | 0.00 | 0.00 | 0.00 | 57 | 1018.8 |
| 20260502044022 | 50 | 335 | 0.0 | 1.0 | 0.00 | 0.00 | 0.00 | 58 | 1018.8 |
| 20260502043604 | 50 | 335 | 0.0 | 0.0 | 0.00 | 0.00 | 0.00 | 60 | 1018.8 |
| 20260502043050 | 50 | 335 | 0.0 | 0.0 | 0.00 | 0.00 | 0.00 | 60 | 1018.7 |
| 20260502042514 | 49 | 335 | 0.0 | 0.0 | 0.00 | 0.00 | 0.00 | 61 | 1018.7 |
| 20260502042055 | 49 | 335 | 0.0 | 0.0 | 0.00 | 0.00 | 0.00 | 65 | 1018.7 |
| 20260502041553 | 49 | 335 | 0.0 | 0.0 | 0.00 | 0.00 | 0.00 | 66 | 1018.6 |
| 20260502041005 | 49 | 335 | 0.0 | 0.0 | 0.00 | 0.00 | 0.00 | 65 | 1018.6 |
| 20260502040550 | 50 | 335 | 0.0 | 0.0 | 0.00 | 0.00 | 0.00 | 65 | 1018.6 |
| 20260502040042 | 50 | 335 | 0.0 | 0.0 | 0.00 | 0.00 | 0.00 | 65 | 1018.6 |
| 20260502035603 | 50 | 335 | 0.0 | 0.0 | 0.00 | 0.00 | 0.00 | 64 | 1018.6 |
| 20260502035040 | 50 | 335 | 0.0 | 0.0 | 0.00 | 0.00 | 0.00 | 63 | 1018.5 |
| 20260502034514 | 50 | 335 | 0.0 | 0.0 | 0.00 | 0.00 | 0.00 | 63 | 1018.5 |
| 20260502034055 | 51 | 335 | 0.0 | 0.0 | 0.00 | 0.00 | 0.00 | 62 | 1018.5 |
| 20260502033530 | 51 | 335 | 0.0 | 0.0 | 0.00 | 0.00 | 0.00 | 61 | 1018.5 |